Location: Hopkins Observatory
(42.6965°N, 73.1843°W)
Time: 14:26:15
(UTC-05:00)

Amateur Radio Satellites - All Passes

Search period start: 13 February 2016 13:56
Search period end: 14 February 2016 13:56
Location: Hopkins Observatory, 42.6965°N, 73.1843°W

Satellite Date Start Highest point End Downlink Frequencies (MHz)
Time Altitude Azimuth
RS-15 13 Feb 13:56:47 14:06:34 31° 336° (NNW) 14:16:50 29.354- 29.394
AO-7 13 Feb 14:05:49 14:13:57 58° 65° (ENE) 14:22:05 29.400- 29.500
YUBILEINY 13 Feb 14:08:26 14:17:19 81° 265° (W) 14:26:06 435.215
DANDE 13 Feb 14:09:42 14:13:18 16° 283° (WNW) 14:16:26 436.750
JAS-2 13 Feb 14:10:59 14:16:54 25° 267° (W) 14:22:27 435.910
Cosmos 2491 13 Feb 14:15:47 14:24:16 60° 91° (E) 14:32:46 435.465 / 435.565
ISS 13 Feb 14:25:41 14:28:55 73° 143° (SE) 14:32:10 145.825
KKS-1 13 Feb 14:27:20 14:30:23 18° 93° (E) 14:33:26 437.445
TISAT 1 13 Feb 14:29:05 14:30:09 11° 299° (WNW) 14:31:14 437.305
Gurwin Techsat 1B 13 Feb 14:29:27 14:33:21 20° 268° (W) 14:37:15 435.225
ITAMSAT 1 13 Feb 14:43:20 14:47:41 27° 265° (W) 14:52:05 435.822/435.867
SWISSCUBE 13 Feb 14:44:18 14:48:49 41° 290° (WNW) 14:53:17 437.505
MOZHAYETS 4 13 Feb 14:50:27 14:52:50 14° 90° (E) 14:55:12
HORYU 2 13 Feb 14:52:41 14:56:43 36° 69° (ENE) 15:00:45 437.375
Cosmos 2504 13 Feb 15:05:46 15:14:13 57° 76° (ENE) 15:22:01 435.465 / 435.565
M-CUBED/EXP-1 PRIME 13 Feb 15:19:47 15:23:16 54° 254° (WSW) 15:26:35 437.505
ITUPSAT 1 13 Feb 15:24:04 15:27:36 21° 297° (WNW) 15:31:07 437.325
AUBIESAT-1 13 Feb 15:25:52 15:29:21 56° 254° (WSW) 15:32:42 437.475
BEESAT 13 Feb 15:30:06 15:33:16 18° 298° (WNW) 15:36:28 436.000
AO-85 13 Feb 15:34:05 15:34:59 10° 24° (NNE) 15:35:53 145.980
STARS 13 Feb 15:34:54 15:39:11 51° 100° (E) 15:43:26 437.465
BEESAT 3 13 Feb 15:46:35 15:50:26 52° 120° (ESE) 15:54:20 437.485
AO-7 13 Feb 15:59:42 16:07:02 34° 263° (W) 16:14:26 29.400- 29.500
ISS 13 Feb 16:02:54 16:05:38 24° 343° (NNW) 16:08:22 145.825
KKS-1 13 Feb 16:02:58 16:07:11 43° 289° (WNW) 16:11:21 437.445
YUBILEINY 13 Feb 16:07:49 16:12:36 16° 285° (WNW) 16:17:24 435.215
BRITE-PL 13 Feb 16:10:24 16:12:49 13° 59° (ENE) 16:15:12 437.365/2234.400
Cosmos 2491 13 Feb 16:14:08 16:21:36 31° 292° (WNW) 16:29:09 435.465 / 435.565
RS-15 13 Feb 16:14:45 16:24:14 26° 12° (NNE) 16:33:57 29.354- 29.394
BEESAT 2 13 Feb 16:18:06 16:22:06 74° 121° (ESE) 16:26:08 435.950
O/OREOS (USA 219) 13 Feb 16:21:47 16:26:15 49° 63° (ENE) 16:30:42 437.305
MOZHAYETS 4 13 Feb 16:25:48 16:30:25 62° 286° (WNW) 16:35:00
HORYU 2 13 Feb 16:29:58 16:33:22 22° 266° (W) 16:36:48 437.375
PCSat 13 Feb 16:34:37 16:35:40 10° 31° (NNE) 16:36:43 145.827
CUTE-I 13 Feb 16:49:50 16:54:55 48° 70° (ENE) 17:00:03 437.470
GOMX 1 13 Feb 16:54:22 16:57:26 16° 63° (ENE) 17:00:25 467.674
Cosmos 2504 13 Feb 16:59:55 17:07:03 31° 278° (W) 17:13:47 435.465 / 435.565
Cubesat XI-IV 13 Feb 17:04:42 17:09:57 65° 72° (ENE) 17:15:16 437.490
AIST 2 13 Feb 17:08:29 17:11:55 26° 114° (ESE) 17:15:24 435.215
AO-85 13 Feb 17:12:15 17:17:07 37° 47° (NE) 17:21:36 145.980
STARS 13 Feb 17:12:26 17:15:08 16° 297° (WNW) 17:17:52 437.465
CUBESAT XI-V 13 Feb 17:17:48 17:22:22 48° 99° (E) 17:26:53 437.345
BEESAT 3 13 Feb 17:25:40 17:28:30 18° 317° (NW) 17:31:21 437.485
LilacSat-2 13 Feb 17:26:54 17:30:42 89° 257° (WSW) 17:34:31 437.200
GONETS M04 13 Feb 17:38:57 17:44:53 19° 60° (ENE) 17:50:46
ISS 13 Feb 17:40:40 17:42:53 17° 3° (N) 17:45:06 145.825
BRITE-PL 13 Feb 17:44:50 17:50:30 82° 76° (ENE) 17:55:59 437.365/2234.400
HO-68 13 Feb 17:45:34 17:51:00 24° 56° (ENE) 17:56:27 435.675
DOVE 4 13 Feb 17:51:17 17:55:23 27° 68° (ENE) 17:59:18 437.250
BEESAT 2 13 Feb 17:58:07 18:00:29 15° 320° (NW) 18:02:51 435.950
STRAND 1 13 Feb 18:01:45 18:05:15 18° 91° (E) 18:08:44 437.568
O/OREOS (USA 219) 13 Feb 18:02:13 18:05:15 17° 260° (W) 18:08:15 437.305
Cosmos 2499 13 Feb 18:05:51 18:07:08 10° 51° (NE) 18:08:25 435.465 / 435.565
CANX-2 13 Feb 18:06:46 18:09:14 15° 64° (ENE) 18:11:43 2200.000
PCSat 13 Feb 18:15:18 18:20:32 45° 53° (NE) 18:25:43 145.827
CINEMA 3 13 Feb 18:16:32 18:19:12 16° 64° (ENE) 18:21:49 145.822/145.860
RS-15 13 Feb 18:28:44 18:40:29 52° 43° (NE) 18:52:26 29.354- 29.394
GOMX 1 13 Feb 18:29:39 18:35:00 73° 258° (WSW) 18:40:04 467.674
CUTE-I 13 Feb 18:31:04 18:35:12 23° 267° (W) 18:39:23 437.470
COMPASS 1 13 Feb 18:33:49 18:36:09 15° 64° (ENE) 18:38:30 437.405
PRISM 13 Feb 18:40:52 18:41:40 10° 90° (E) 18:42:28 437.425
AIST 2 13 Feb 18:46:30 18:50:18 33° 311° (NW) 18:54:07 435.215
Cubesat XI-IV 13 Feb 18:47:10 18:50:29 17° 269° (W) 18:53:51 437.490
AO-85 13 Feb 18:53:03 18:57:32 32° 247° (WSW) 19:01:41 145.980
SEEDS 13 Feb 18:54:01 18:57:43 31° 70° (ENE) 19:01:27 437.485
CUTE 1.7 + AOD 2 13 Feb 18:54:50 18:58:49 42° 72° (ENE) 19:02:50 437.475
CUBESAT XI-V 13 Feb 18:56:05 18:59:23 19° 296° (WNW) 19:02:40 437.345
AAUSAT CUBESAT 2 13 Feb 18:57:26 19:00:35 21° 67° (ENE) 19:03:45 437.432
Oscar 11 13 Feb 19:05:57 19:07:41 12° 61° (ENE) 19:09:24 145.826/435.025
ISS 13 Feb 19:17:04 19:20:02 32° 22° (NNE) 19:23:00 145.825
UWE-3 13 Feb 19:22:56 19:25:56 19° 66° (ENE) 19:28:55 435.000/436.395/437.385
BRITE-PL 13 Feb 19:26:35 19:29:29 14° 271° (W) 19:32:21 437.365/2234.400
DOVE 4 13 Feb 19:28:21 19:32:57 36° 263° (W) 19:37:20 437.250
CUBEBUG 2 13 Feb 19:30:21 19:34:07 31° 70° (ENE) 19:37:49 437.445
HO-68 13 Feb 19:30:50 19:38:00 75° 255° (WSW) 19:45:15 435.675
GONETS M04 13 Feb 19:34:13 19:43:06 86° 83° (E) 19:51:57
DELFI C3 13 Feb 19:39:07 19:41:07 14° 64° (ENE) 19:43:07 145.870
STRAND 1 13 Feb 19:39:43 19:44:47 57° 288° (WNW) 19:49:49 437.568
CANX-2 13 Feb 19:40:35 19:44:40 51° 260° (W) 19:48:49 2200.000
CINEMA 3 13 Feb 19:51:32 19:55:59 54° 260° (W) 20:00:16 145.822/145.860
Cosmos 2499 13 Feb 19:54:30 20:02:39 54° 76° (ENE) 20:10:08 435.465 / 435.565
PCSat 13 Feb 19:59:09 20:03:41 28° 251° (WSW) 20:08:12 145.827
ZACube-1 13 Feb 20:06:13 20:10:06 38° 71° (ENE) 20:13:58 437.345
COMPASS 1 13 Feb 20:07:16 20:11:18 52° 261° (W) 20:15:24 437.405
FUNcube-1 13 Feb 20:12:55 20:16:53 43° 72° (ENE) 20:20:49 145.935
PRISM 13 Feb 20:13:18 20:17:28 67° 286° (WNW) 20:21:34 437.425
SEEDS 13 Feb 20:30:11 20:33:28 22° 266° (W) 20:36:47 437.485
CUTE 1.7 + AOD 2 13 Feb 20:32:08 20:34:52 17° 268° (W) 20:37:38 437.475
AAUSAT CUBESAT 2 13 Feb 20:32:09 20:35:53 33° 263° (W) 20:39:41 437.432
Oscar 11 13 Feb 20:38:57 20:43:14 70° 259° (WSW) 20:47:33 145.826/435.025
RS-15 13 Feb 20:41:31 20:53:15 57° 247° (WSW) 21:05:07 29.354- 29.394
ISS 13 Feb 20:53:28 20:56:32 40° 221° (SW) 20:59:35 145.825
UWE-3 13 Feb 20:58:15 21:02:11 37° 262° (W) 21:06:04 435.000/436.395/437.385
DX 1 13 Feb 21:00:49 21:02:11 11° 60° (ENE) 21:03:33 434.975-435.025
CUBEBUG 2 13 Feb 21:07:26 21:10:47 22° 266° (W) 21:14:07 437.445
AIST 1 13 Feb 21:09:57 21:14:18 79° 264° (W) 21:18:35
DELFI C3 13 Feb 21:11:43 21:15:35 52° 260° (W) 21:19:31 145.870
HUMSAT D 13 Feb 21:23:22 21:27:27 84° 76° (ENE) 21:31:33 437.325/437.525
HO-68 13 Feb 21:24:07 21:26:52 12° 274° (W) 21:29:38 435.675
ESTCUBE 1 13 Feb 21:28:47 21:32:21 23° 66° (ENE) 21:35:56 437.505/2401.250
ANTELSAT 13 Feb 21:31:23 21:34:47 22° 94° (E) 21:38:13 437.575/2403.000
GONETS M04 13 Feb 21:32:53 21:38:44 20° 282° (WNW) 21:44:36
TIGRISAT 13 Feb 21:36:39 21:40:09 23° 95° (E) 21:43:43 435.000
ZACube-1 13 Feb 21:43:43 21:46:34 18° 267° (W) 21:49:24 437.345
Cosmos 2499 13 Feb 21:48:20 21:55:16 31° 277° (W) 22:01:47 435.465 / 435.565
FUNcube-1 13 Feb 21:50:50 21:53:22 16° 268° (W) 21:55:54 145.935
50 SAT 13 Feb 22:06:46 22:10:24 56° 73° (ENE) 22:14:03 437.505
VELOX 1 13 Feb 22:07:33 22:11:52 50° 72° (ENE) 22:16:11 145.980
UKube-1 13 Feb 22:13:37 22:17:50 53° 72° (ENE) 22:22:04 .
POPSAT HIP 1 13 Feb 22:13:58 22:16:10 14° 91° (E) 22:18:21 437.405
DUCHIFAT 1 13 Feb 22:15:26 22:17:29 13° 91° (E) 22:19:31 145.980
NANOSAT C BR1 13 Feb 22:15:49 22:18:05 14° 91° (E) 22:20:21 145.865
SPROUT 13 Feb 22:16:42 22:19:44 19° 65° (ENE) 22:22:46 437.525
UNISAT 6 13 Feb 22:22:18 22:26:42 76° 102° (ESE) 22:31:10 437.425
AISAT 13 Feb 22:24:52 22:29:20 80° 76° (ENE) 22:33:49 437.250
QB50P1 13 Feb 22:25:31 22:28:32 19° 93° (E) 22:31:32 145.935-145.965
CUBEBUG 1 13 Feb 22:31:47 22:36:12 76° 76° (ENE) 22:40:39 437.445
DX 1 13 Feb 22:33:21 22:37:44 80° 256° (WSW) 22:42:09 434.975-435.025
BUGSAT 1 13 Feb 22:57:28 23:00:26 20° 94° (E) 23:03:23 437.445
RS-15 13 Feb 23:00:08 23:02:53 11° 268° (W) 23:05:38 29.354- 29.394
ESTCUBE 1 13 Feb 23:04:47 23:08:58 37° 263° (W) 23:13:11 437.505/2401.250
ANTELSAT 13 Feb 23:07:35 23:11:35 36° 290° (WNW) 23:15:40 437.575/2403.000
TIGRISAT 13 Feb 23:12:59 23:16:54 33° 290° (WNW) 23:20:52 435.000
PHONESAT 2.4 13 Feb 23:14:42 23:17:37 30° 160° (SSE) 23:20:32 2401.200-2431.200
POLYITAN 1 13 Feb 23:19:02 23:23:16 77° 103° (ESE) 23:27:28 437.675
QB50P2 13 Feb 23:19:28 23:23:42 80° 105° (ESE) 23:27:55 145.880/145.840
TISAT 1 13 Feb 23:43:05 23:47:14 60° 74° (ENE) 23:51:23 437.305
VELOX 1 13 Feb 23:45:50 23:48:37 16° 268° (W) 23:51:24 145.980
POPSAT HIP 1 13 Feb 23:48:11 23:52:16 51° 287° (WNW) 23:56:21 437.405
DUCHIFAT 1 13 Feb 23:49:26 23:53:31 53° 287° (WNW) 23:57:35 145.980
NANOSAT C BR1 13 Feb 23:50:04 23:54:07 50° 287° (WNW) 23:58:10 145.865
SPROUT 13 Feb 23:51:22 23:55:25 40° 262° (W) 23:59:29 437.525
DANDE 13 Feb 23:51:29 23:56:36 18° 79° (E) 00:01:48 436.750
UKube-1 13 Feb 23:51:49 23:54:12 14° 269° (W) 23:56:35 .
Oscar 19 13 Feb 23:58:58 00:00:36 11° 88° (E) 00:02:13 437.125/150
QB50P1 14 Feb 00:00:34 00:04:27 37° 290° (WNW) 00:08:19 145.935-145.965
UNISAT 6 14 Feb 00:01:20 00:02:51 12° 299° (WNW) 00:04:22 437.425
BEESAT 3 14 Feb 00:03:33 00:07:19 39° 51° (NE) 00:11:01 437.485
CUBEBUG 1 14 Feb 00:12:19 00:13:01 10° 271° (W) 00:13:43 437.445
SWISSCUBE 14 Feb 00:14:15 00:18:19 29° 67° (ENE) 00:22:24 437.505
CUSAT 1 14 Feb 00:19:57 00:27:32 46° 91° (E) 00:34:51 437.405
Cosmos 2491 14 Feb 00:25:22 00:32:56 31° 68° (ENE) 00:40:27 435.465 / 435.565
BUGSAT 1 14 Feb 00:32:17 00:35:55 33° 290° (WNW) 00:39:30 437.445
BEESAT 2 14 Feb 00:35:48 00:39:45 55° 53° (NE) 00:43:39 435.950
PHONESAT 2.4 14 Feb 00:51:22 00:54:36 58° 177° (S) 00:57:50 2401.200-2431.200
ITUPSAT 1 14 Feb 00:52:45 00:57:26 60° 72° (ENE) 01:02:10 437.325
POLYITAN 1 14 Feb 00:57:29 00:58:28 11° 299° (WNW) 00:59:27 437.675
BEESAT 14 Feb 00:58:09 01:02:53 70° 73° (ENE) 01:07:39 436.000
QB50P2 14 Feb 00:58:14 00:58:52 10° 300° (WNW) 00:59:31 145.880/145.840
Gurwin Techsat 1B 14 Feb 01:04:13 01:08:01 20° 92° (E) 01:11:48 435.225
YUBILEINY 14 Feb 01:15:53 01:22:31 25° 80° (E) 01:29:10 435.215
ITAMSAT 1 14 Feb 01:17:13 01:19:25 12° 89° (E) 01:21:36 435.822/435.867
JAS-2 14 Feb 01:18:47 01:24:06 47° 98° (E) 01:29:05 435.910
TISAT 1 14 Feb 01:21:37 01:23:17 12° 270° (W) 01:24:56 437.305
KKS-1 14 Feb 01:26:19 01:29:30 20° 64° (ENE) 01:32:41 437.445
AIST 2 14 Feb 01:28:49 01:32:14 24° 45° (NE) 01:35:38 435.215
DANDE 14 Feb 01:30:13 01:38:19 81° 97° (E) 01:46:47 436.750
Oscar 19 14 Feb 01:35:25 01:40:34 85° 285° (WNW) 01:45:41 437.125/150
BEESAT 3 14 Feb 01:41:56 01:44:47 19° 248° (WSW) 01:47:37 437.485
SWISSCUBE 14 Feb 01:51:46 01:56:02 32° 263° (W) 02:00:20 437.505
MOZHAYETS 4 14 Feb 01:53:23 01:56:01 15° 62° (ENE) 01:58:39
CUSAT 1 14 Feb 02:02:12 02:09:50 43° 288° (WNW) 02:17:08 437.405
AO-7 14 Feb 02:08:41 02:13:17 16° 88° (E) 02:17:51 29.400- 29.500
BEESAT 2 14 Feb 02:15:07 02:17:12 14° 250° (WSW) 02:19:16 435.950
Cosmos 2491 14 Feb 02:21:44 02:30:17 61° 269° (W) 02:38:52 435.465 / 435.565
SO-50 14 Feb 02:26:56 02:29:44 15° 108° (ESE) 02:32:34 436.795
PHONESAT 2.4 14 Feb 02:28:33 02:31:39 42° 194° (SSW) 02:34:46 2401.200-2431.200
STARS 14 Feb 02:32:06 02:36:20 50° 72° (ENE) 02:40:36 437.465
ITUPSAT 1 14 Feb 02:32:56 02:35:40 15° 269° (W) 02:38:26 437.325
BEESAT 14 Feb 02:39:01 02:41:10 13° 270° (W) 02:43:19 436.000
Gurwin Techsat 1B 14 Feb 02:43:06 02:48:19 55° 289° (WNW) 02:53:29 435.225
ITAMSAT 1 14 Feb 02:54:14 02:59:30 82° 286° (WNW) 03:04:44 435.822/435.867
KKS-1 14 Feb 03:01:32 03:05:46 43° 261° (W) 03:10:02 437.445
JAS-2 14 Feb 03:04:36 03:08:51 23° 299° (WNW) 03:12:52 435.910
AIST 2 14 Feb 03:07:00 03:10:51 38° 243° (WSW) 03:14:39 435.215
YUBILEINY 14 Feb 03:09:38 03:18:24 73° 280° (W) 03:27:17 435.215
DANDE 14 Feb 03:15:33 03:22:10 26° 297° (WNW) 03:28:54 436.750
Oscar 19 14 Feb 03:17:14 03:19:05 12° 303° (WNW) 03:20:56 437.125/150
MOZHAYETS 4 14 Feb 03:28:10 03:32:41 61° 259° (W) 03:37:15
Cosmos 2504 14 Feb 03:43:35 03:51:45 48° 88° (E) 04:00:08 435.465 / 435.565
AO-7 14 Feb 03:58:54 04:07:17 80° 107° (ESE) 04:15:35 29.400- 29.500
SO-50 14 Feb 04:04:45 04:09:39 72° 305° (NW) 04:14:37 436.795
PHONESAT 2.4 14 Feb 04:06:36 04:08:25 14° 209° (SSW) 04:10:14 2401.200-2431.200
STARS 14 Feb 04:10:20 04:13:00 16° 268° (W) 04:15:39 437.465
HORYU 2 14 Feb 04:18:47 04:23:14 65° 102° (ESE) 04:27:40 437.375
CUBESAT XI-V 14 Feb 04:21:32 04:26:05 51° 72° (ENE) 04:30:40 437.345
Cosmos 2491 14 Feb 04:23:59 04:25:10 10° 289° (WNW) 04:26:20 435.465 / 435.565
M-CUBED/EXP-1 PRIME 14 Feb 04:32:21 04:35:49 89° 88° (E) 04:39:32 437.505
ITAMSAT 1 14 Feb 04:36:14 04:38:07 12° 303° (WNW) 04:40:00 435.822/435.867
AUBIESAT-1 14 Feb 04:37:53 04:41:24 85° 107° (ESE) 04:45:11 437.475
CUTE-I 14 Feb 05:07:05 05:10:40 18° 91° (E) 05:14:15 437.470
YUBILEINY 14 Feb 05:12:05 05:16:59 16° 303° (WNW) 05:21:56 435.215
STRAND 1 14 Feb 05:18:06 05:22:26 29° 66° (ENE) 05:26:48 437.568
Cubesat XI-IV 14 Feb 05:21:45 05:26:07 24° 94° (E) 05:30:25 437.490
Cosmos 2504 14 Feb 05:37:07 05:45:13 41° 288° (WNW) 05:53:33 435.465 / 435.565
SO-50 14 Feb 05:48:10 05:51:02 15° 326° (NW) 05:53:53 436.795
BRITE-PL 14 Feb 05:50:32 05:54:05 22° 92° (E) 05:57:28 437.365/2234.400
AO-7 14 Feb 05:52:45 05:59:13 26° 307° (NW) 06:05:39 29.400- 29.500
HORYU 2 14 Feb 05:57:01 05:59:17 14° 299° (WNW) 06:01:32 437.375
CUBESAT XI-V 14 Feb 06:00:41 06:03:46 17° 269° (W) 06:06:52 437.345
GOMX 1 14 Feb 06:31:43 06:35:27 28° 95° (E) 06:39:03 467.674
LilacSat-2 14 Feb 06:33:52 06:37:37 63° 285° (WNW) 06:41:22 437.200
O/OREOS (USA 219) 14 Feb 06:34:44 06:39:02 48° 108° (ESE) 06:43:24 437.305
GONETS M04 14 Feb 06:43:03 06:48:47 20° 77° (ENE) 06:54:29
CUTE-I 14 Feb 06:45:48 06:51:08 62° 288° (WNW) 06:56:25 437.470
STRAND 1 14 Feb 06:56:46 07:01:28 36° 263° (W) 07:06:13 437.568
HO-68 14 Feb 06:58:56 07:04:05 21° 91° (E) 07:09:12 435.675
Cubesat XI-IV 14 Feb 07:01:14 07:06:22 45° 291° (WNW) 07:11:28 437.490
PRISM 14 Feb 07:03:08 07:07:19 85° 260° (W) 07:11:32 437.425
CANX-2 14 Feb 07:25:10 07:28:45 25° 95° (E) 07:32:19 2200.000
DOVE 4 14 Feb 07:26:18 07:30:25 56° 100° (E) 07:34:29 437.250
BRITE-PL 14 Feb 07:28:32 07:32:44 34° 291° (WNW) 07:36:39 437.365/2234.400
AO-85 14 Feb 07:30:36 07:31:59 11° 104° (ESE) 07:33:23 145.980
CINEMA 3 14 Feb 07:45:30 07:49:11 30° 96° (E) 07:52:54 145.822/145.860
COMPASS 1 14 Feb 07:49:52 07:53:16 23° 94° (E) 07:56:39 437.405
GOMX 1 14 Feb 08:09:56 08:13:28 25° 293° (WNW) 08:16:54 467.674
SEEDS 14 Feb 08:12:14 08:16:26 55° 100° (E) 08:20:37 437.485
AAUSAT CUBESAT 2 14 Feb 08:13:30 08:17:21 34° 97° (E) 08:21:11 437.432
CUTE 1.7 + AOD 2 14 Feb 08:14:25 08:18:43 79° 101° (E) 08:23:02 437.475
O/OREOS (USA 219) 14 Feb 08:15:29 08:18:43 19° 306° (NW) 08:22:00 437.305
Oscar 11 14 Feb 08:26:07 08:29:22 20° 93° (E) 08:32:36 145.826/435.025
Cosmos 2499 14 Feb 08:30:25 08:38:36 45° 87° (E) 08:46:49 435.465 / 435.565
ANTELSAT 14 Feb 08:31:29 08:34:41 21° 66° (ENE) 08:37:52 437.575/2403.000
GONETS M04 14 Feb 08:35:41 08:44:23 86° 278° (W) 08:53:11
TIGRISAT 14 Feb 08:36:31 08:39:50 22° 67° (ENE) 08:43:08 435.000
HO-68 14 Feb 08:45:16 08:52:29 76° 289° (WNW) 08:59:38 435.675
UWE-3 14 Feb 08:46:35 08:50:32 36° 98° (E) 08:54:33 435.000/436.395/437.385
DELFI C3 14 Feb 08:49:43 08:52:36 19° 93° (E) 08:55:28 145.870
CUBEBUG 2 14 Feb 08:56:01 09:00:14 66° 101° (E) 09:04:32 437.445
RS-15 14 Feb 08:56:52 09:04:55 24° 100° (E) 09:13:11 29.354- 29.394
PCSat 14 Feb 08:57:59 09:02:48 34° 111° (ESE) 09:07:40 145.827
CANX-2 14 Feb 09:00:51 09:04:36 29° 291° (WNW) 09:08:19 2200.000
DOVE 4 14 Feb 09:05:39 09:07:40 13° 298° (WNW) 09:09:40 437.250
AO-85 14 Feb 09:06:14 09:11:35 77° 121° (ESE) 09:17:07 145.980
HUMSAT D 14 Feb 09:07:46 09:09:42 13° 90° (E) 09:11:37 437.325/437.525
POPSAT HIP 1 14 Feb 09:08:06 09:09:57 13° 62° (ENE) 09:11:49 437.405
DUCHIFAT 1 14 Feb 09:09:05 09:10:44 12° 62° (ENE) 09:12:22 145.980
NANOSAT C BR1 14 Feb 09:09:36 09:11:31 13° 62° (ENE) 09:13:26 145.865
QB50P1 14 Feb 09:19:16 09:22:00 17° 64° (ENE) 09:24:43 145.935-145.965
UNISAT 6 14 Feb 09:21:52 09:26:08 72° 76° (ENE) 09:30:24 437.425
CINEMA 3 14 Feb 09:22:55 09:26:13 23° 292° (WNW) 09:29:33 145.822/145.860
COMPASS 1 14 Feb 09:25:08 09:28:53 31° 290° (WNW) 09:32:36 437.405
ZACube-1 14 Feb 09:29:19 09:33:34 78° 101° (ESE) 09:37:55 437.345
FUNcube-1 14 Feb 09:35:46 09:40:02 87° 103° (ESE) 09:44:23 145.935
AIST 1 14 Feb 09:39:36 09:43:55 58° 94° (E) 09:48:16
BUGSAT 1 14 Feb 09:48:28 09:51:10 17° 65° (ENE) 09:53:51 437.445
SEEDS 14 Feb 09:49:21 09:51:42 15° 297° (WNW) 09:54:02 437.485
AAUSAT CUBESAT 2 14 Feb 09:49:27 09:52:40 21° 293° (WNW) 09:55:52 437.432
CUTE 1.7 + AOD 2 14 Feb 09:52:51 09:53:56 11° 299° (WNW) 09:55:02 437.475
Oscar 11 14 Feb 10:01:35 10:05:37 37° 289° (WNW) 10:09:38 145.826/435.025
ANTELSAT 14 Feb 10:07:15 10:11:11 36° 262° (W) 10:15:08 437.575/2403.000
POLYITAN 1 14 Feb 10:12:12 10:16:22 62° 74° (ENE) 10:20:33 437.675
TIGRISAT 14 Feb 10:12:30 10:16:22 33° 263° (W) 10:20:13 435.000
QB50P2 14 Feb 10:12:34 10:16:46 65° 74° (ENE) 10:20:58 145.880/145.840
AISAT 14 Feb 10:16:01 10:18:22 14° 91° (E) 10:20:42 437.250
CUBEBUG 1 14 Feb 10:21:34 10:23:35 13° 90° (E) 10:25:35 437.445
DX 1 14 Feb 10:22:00 10:24:46 16° 92° (E) 10:27:31 434.975-435.025
Cosmos 2499 14 Feb 10:23:25 10:31:42 44° 287° (WNW) 10:40:06 435.465 / 435.565
UWE-3 14 Feb 10:23:39 10:26:48 21° 293° (WNW) 10:29:59 435.000/436.395/437.385
DELFI C3 14 Feb 10:23:54 10:27:37 35° 289° (WNW) 10:31:18 145.870
DANDE 14 Feb 10:33:09 10:34:23 11° 50° (NE) 10:35:34 436.750
CUBEBUG 2 14 Feb 10:34:37 10:36:22 12° 297° (WNW) 10:38:08 437.445
HO-68 14 Feb 10:34:54 10:39:02 16° 309° (NW) 10:43:10 435.675
GONETS M04 14 Feb 10:36:54 10:42:37 19° 300° (WNW) 10:48:26
POPSAT HIP 1 14 Feb 10:41:03 10:45:14 64° 258° (WSW) 10:49:26 437.405
PCSat 14 Feb 10:41:08 10:46:09 38° 309° (NW) 10:51:12 145.827
HUMSAT D 14 Feb 10:41:33 10:45:40 56° 286° (WNW) 10:49:49 437.325/437.525
DUCHIFAT 1 14 Feb 10:41:43 10:45:54 67° 259° (WSW) 10:50:06 145.980
NANOSAT C BR1 14 Feb 10:42:35 10:46:45 62° 259° (W) 10:50:57 145.865
AO-85 14 Feb 10:48:28 10:52:44 23° 321° (NW) 10:57:03 145.980
QB50P1 14 Feb 10:53:23 10:57:27 45° 261° (W) 11:01:31 145.935-145.965
SO-50 14 Feb 10:55:58 10:59:40 21° 40° (NE) 11:03:16 436.795
ESTCUBE 1 14 Feb 10:56:12 11:00:33 42° 98° (E) 11:04:50 437.505/2401.250
CUSAT 1 14 Feb 10:58:16 11:02:28 23° 63° (ENE) 11:05:52 437.405
RS-15 14 Feb 11:04:24 11:15:35 90° 123° (ESE) 11:27:27 29.354- 29.394
ZACube-1 14 Feb 11:08:14 11:09:18 11° 299° (WNW) 11:10:21 437.345
50 SAT 14 Feb 11:11:09 11:14:58 71° 101° (ESE) 11:18:46 437.505
Oscar 19 14 Feb 11:15:31 11:19:14 20° 62° (ENE) 11:22:57 437.125/150
AIST 1 14 Feb 11:19:45 11:21:56 13° 292° (WNW) 11:24:08
BUGSAT 1 14 Feb 11:22:14 11:26:13 44° 261° (W) 11:30:12 437.445
YUBILEINY 14 Feb 11:25:20 11:28:41 12° 53° (NE) 11:32:01 435.215
JAS-2 14 Feb 11:30:50 11:36:56 29° 64° (ENE) 11:42:32 435.910
VELOX 1 14 Feb 11:33:11 11:37:37 89° 279° (W) 11:42:01 145.980
UKube-1 14 Feb 11:35:50 11:40:11 88° 102° (ESE) 11:44:29 .
SPROUT 14 Feb 11:36:46 11:40:33 30° 96° (E) 11:44:19 437.525
AISAT 14 Feb 11:50:53 11:55:13 55° 287° (WNW) 11:59:29 437.250
POLYITAN 1 14 Feb 11:51:09 11:52:36 11° 270° (W) 11:54:02 437.675
QB50P2 14 Feb 11:51:46 11:53:00 11° 270° (W) 11:54:14 145.880/145.840
CUBEBUG 1 14 Feb 11:55:58 12:00:16 58° 287° (WNW) 12:04:30 437.445
DX 1 14 Feb 11:57:02 12:01:12 46° 289° (WNW) 12:05:21 434.975-435.025
DANDE 14 Feb 12:12:43 12:19:17 65° 76° (ENE) 12:24:08 436.750
Gurwin Techsat 1B 14 Feb 12:25:44 12:30:28 34° 67° (ENE) 12:35:12 435.225
ESTCUBE 1 14 Feb 12:33:44 12:37:04 20° 295° (WNW) 12:40:22 437.505/2401.250
ITAMSAT 1 14 Feb 12:35:08 12:39:06 23° 63° (ENE) 12:43:05 435.822/435.867
SO-50 14 Feb 12:35:51 12:40:38 65° 240° (WSW) 12:45:14 436.795
CUSAT 1 14 Feb 12:40:16 12:44:57 34° 272° (W) 12:48:36 437.405
Oscar 19 14 Feb 12:53:05 12:58:09 55° 260° (W) 13:03:14 437.125/150
ITUPSAT 1 14 Feb 12:53:58 12:56:38 15° 91° (E) 12:59:17 437.325
BEESAT 14 Feb 12:58:41 13:01:47 17° 92° (E) 13:04:50 436.000
TISAT 1 14 Feb 13:01:50 13:06:02 83° 285° (WNW) 13:10:11 437.305
AO-7 14 Feb 13:08:02 13:14:44 28° 54° (NE) 13:21:26 29.400- 29.500
SPROUT 14 Feb 13:12:57 13:16:24 24° 293° (WNW) 13:19:50 437.525
JAS-2 14 Feb 13:14:13 13:21:37 59° 259° (W) 13:28:20 435.910
YUBILEINY 14 Feb 13:18:56 13:27:42 60° 77° (ENE) 13:36:21 435.215
RS-15 14 Feb 13:19:36 13:29:45 35° 330° (NNW) 13:40:26 29.354- 29.394
Cosmos 2491 14 Feb 13:28:07 13:35:36 34° 84° (E) 13:43:05 435.465 / 435.565
ISS 14 Feb 13:33:11 13:36:13 37° 139° (SE) 13:39:16 145.825
Cosmos 2504 14 Feb 13:36:51 13:42:19 18° 59° (ENE) 13:47:34 435.465 / 435.565
